Skip Page Navigation
NASA JPL Caltech
NASA Logo - Jet Propulsion Laboratory + View the NASA Portal
+ Center for Near-Earth Object Studies
JPL Home Earth Solar System Stars & Galaxies Technology
JPL Solar System Dynamics
BODIES ORBITS EPHEMERIDES TOOLS PHYSICAL DATA DISCOVERY FAQ SITE MAP
IMPORTANT: The SSD Announcement email list is now available. Major changes are coming in the near future, including possible hostname and/or URL changes. To be notified of such changes, subscribe to this email list.

Please visit this page for more details.


JPL Small-Body Database Browser
Search: [ help ]  
447001 (2004 BH160)
Classification: Main-belt Asteroid          SPK-ID: 2447001
Ephemeris | Orbit Diagram | Orbital Elements | Mission Design | Physical Parameters | Discovery Circumstances ]

[ show orbit diagram ]
Orbital Elements at Epoch 2458600.5 (2019-Apr-27.0) TDB
Reference: JPL 11 (heliocentric ecliptic J2000)
 Element Value Uncertainty (1-sigma)   Units 
e .1403749845041047 9.001e-08  
a 2.197222227690588 2.4807e-08 au
q 1.888787191526448 2.1086e-07 au
i 3.559284669368488 8.8911e-06 deg
node 341.6292971445863 0.00010615 deg
peri 35.99481103320041 0.0001144 deg
M 17.53546486465641 4.0289e-05 deg
tp 2458542.553903500588
(2019-Feb-28.05390350)
0.00013261 TDB
period 1189.623138068824
3.26
2.0146e-05
5.516e-08
d
yr
n .3026168443431643 5.1248e-09 deg/d
Q 2.505657263854729 2.8289e-08 au
  Orbit Determination Parameters
   # obs. used (total)      74  
   data-arc span      5779 days (15.82 yr)  
   first obs. used      2002-09-13  
   last obs. used      2018-07-10  
   planetary ephem.      DE431  
   SB-pert. ephem.      SB431-N16  
   condition code      0  
   norm. resid. RMS      .59692  
   source      ORB  
   producer      Otto Matic  
   solution date      2019-Jul-13 18:44:47  

Additional Information
 Earth MOID = .890707 au 
 Jupiter MOID = 2.96078 au 
 T_jup = 3.652 
[ show covariance matrix ]

Ephemeris | Orbit Diagram | Orbital Elements | Mission Design | Physical Parameters | Discovery Circumstances ]

Physical Parameter Table
Parameter Symbol Value Units Sigma Reference Notes
absolute magnitude H 18.6   n/a MPO456117  

447001 (2004 BH160)          Discovered 2004-Jan-21 by Cerro Paranal at Cerro Paranal
Reference: Last Updated: 2015-10-28

Alternate Designations
 2004 BH160 = 2002 RW165 
Ephemeris | Orbit Diagram | Orbital Elements | Mission Design | Physical Parameters | Discovery Circumstances ]
ABOUT SSD CREDITS/AWARDS PRIVACY/COPYRIGHT GLOSSARY LINKS
FirstGov
(server date/time)  
NASA Home Page
Site Manager:   Ryan S. Park
Webmaster  Alan B. Chamberlin